When you browse on this site, cookies collect data to enhance your experience and personalize the content and advertising you see.
Visit our Privacy Policy to learn more. By continuing to use the site, you agree to this use of cookies and data.
  • In France
  • List of Countries
  • For 7 days
  • Water Temperature
  • Weather Map
  • Weather Widgets
  • user-avatar
    Login

    Hourly Weather Offenbach am Main

    Today, 22 September, Sunday

    Time Temperature Precipitation Wind Pressure Humidity
    00:00 +14°C° 0 mm 2 mps 751 mmHg 71%
    01:00 +14°C° 0 mm 2 mps 751 mmHg 78%
    02:00 +14°C° 0 mm 2 mps 750 mmHg 80%
    03:00 +14°C° 0 mm 1 mps 750 mmHg 81%
    04:00 +13°C° 0 mm 1 mps 750 mmHg 83%
    05:00 +13°C° 0 mm 1 mps 750 mmHg 83%
    06:00 +13°C° 0 mm 1 mps 750 mmHg 82%
    07:00 +13°C° 0 mm 1 mps 750 mmHg 79%
    08:00 +15°C° 0 mm 1 mps 749 mmHg 71%
    09:00 +18°C° 0 mm 1 mps 749 mmHg 63%
    10:00 +20°C° 0 mm 1 mps 749 mmHg 55%
    11:00 +22°C° 0 mm 1 mps 749 mmHg 51%
    12:00 +23°C° 0 mm 1 mps 748 mmHg 47%
    13:00 +25°C° 0 mm 1 mps 748 mmHg 41%
    14:00 +25°C° 0 mm 1 mps 747 mmHg 41%
    15:00 +26°C° 0 mm 1 mps 747 mmHg 41%
    16:00 +26°C° 0 mm 1 mps 747 mmHg 41%
    17:00 +24°C° 0 mm 1 mps 747 mmHg 47%
    18:00 +22°C° 0 mm 1 mps 747 mmHg 52%
    19:00 +21°C° 0 mm 1 mps 747 mmHg 58%
    20:00 +20°C° 0 mm 1 mps 747 mmHg 61%
    21:00 +19°C° 0 mm 1 mps 747 mmHg 64%
    22:00 +17°C° 0 mm 0 mps 747 mmHg 67%
    23:00 +16°C° 0 mm 0 mps 747 mmHg 68%

    Tomorrow, 23 September, Monday

    Time Temperature Precipitation Wind Pressure Humidity
    00:00 +16°C° 0 mm 0 mps 748 mmHg 69%
    01:00 +16°C° 0 mm 0 mps 748 mmHg 70%
    02:00 +18°C° 0.2 mm 1 mps 748 mmHg 74%
    03:00 +17°C° 0.2 mm 2 mps 748 mmHg 77%
    04:00 +16°C° 0.2 mm 3 mps 749 mmHg 80%
    05:00 +16°C° 2.6 mm 3 mps 749 mmHg 84%
    06:00 +16°C° 2.6 mm 3 mps 750 mmHg 87%
    07:00 +15°C° 2.6 mm 4 mps 750 mmHg 90%
    08:00 +16°C° 0.9 mm 3 mps 750 mmHg 89%
    09:00 +16°C° 0.9 mm 3 mps 751 mmHg 88%
    10:00 +16°C° 0.9 mm 2 mps 751 mmHg 87%
    11:00 +16°C° 0.2 mm 2 mps 751 mmHg 84%
    12:00 +17°C° 0.2 mm 2 mps 751 mmHg 80%
    13:00 +18°C° 0.2 mm 2 mps 752 mmHg 76%
    14:00 +18°C° 0.1 mm 2 mps 752 mmHg 74%
    15:00 +18°C° 0.1 mm 2 mps 752 mmHg 71%
    16:00 +19°C° 0.1 mm 2 mps 752 mmHg 69%
    17:00 +18°C° 0 mm 2 mps 752 mmHg 72%
    18:00 +17°C° 0 mm 2 mps 752 mmHg 74%
    19:00 +16°C° 0 mm 1 mps 752 mmHg 77%
    20:00 +16°C° 0 mm 1 mps 752 mmHg 79%
    21:00 +15°C° 0 mm 1 mps 753 mmHg 82%
    22:00 +15°C° 0 mm 1 mps 753 mmHg 84%
    23:00 +14°C° 0 mm 1 mps 753 mmHg 84%

    Day after tomorrow, 24 September, Tuesday

    Time Temperature Precipitation Wind Pressure Humidity
    00:00 +14°C° 0 mm 1 mps 753 mmHg 84%
    01:00 +14°C° 0 mm 1 mps 753 mmHg 84%
    02:00 +14°C° 0 mm 1 mps 752 mmHg 85%
    03:00 +14°C° 0 mm 1 mps 752 mmHg 85%
    04:00 +14°C° 0 mm 1 mps 752 mmHg 86%
    05:00 +13°C° 0 mm 1 mps 752 mmHg 87%
    06:00 +13°C° 0 mm 1 mps 751 mmHg 88%
    07:00 +13°C° 0 mm 1 mps 751 mmHg 88%
    08:00 +15°C° 0 mm 1 mps 751 mmHg 81%
    09:00 +16°C° 0 mm 2 mps 750 mmHg 74%
    10:00 +18°C° 0 mm 2 mps 750 mmHg 67%
    11:00 +19°C° 0 mm 2 mps 750 mmHg 62%
    12:00 +20°C° 0 mm 2 mps 749 mmHg 57%
    13:00 +21°C° 0 mm 2 mps 749 mmHg 52%
    14:00 +21°C° 0 mm 3 mps 748 mmHg 51%
    15:00 +21°C° 0 mm 3 mps 748 mmHg 51%
    16:00 +21°C° 0 mm 3 mps 747 mmHg 50%
    17:00 +20°C° 0.2 mm 3 mps 747 mmHg 59%
    18:00 +18°C° 0.2 mm 3 mps 747 mmHg 68%
    19:00 +17°C° 0.2 mm 3 mps 746 mmHg 76%
    20:00 +16°C° 0.4 mm 3 mps 746 mmHg 79%
    21:00 +16°C° 0.4 mm 3 mps 746 mmHg 83%
    22:00 +16°C° 0.4 mm 3 mps 746 mmHg 86%
    23:00 +16°C° 0.1 mm 3 mps 746 mmHg 86%

    25 September, Wednesday

    Time Temperature Precipitation Wind Pressure Humidity
    00:00 +16°C° 0.1 mm 3 mps 746 mmHg 87%
    01:00 +14°C° 0.1 mm 3 mps 745 mmHg 88%
    02:00 +14°C° 0.1 mm 3 mps 745 mmHg 88%
    03:00 +14°C° 0.1 mm 3 mps 745 mmHg 89%
    04:00 +14°C° 0.1 mm 3 mps 746 mmHg 89%
    05:00 +14°C° 0.7 mm 3 mps 746 mmHg 89%
    06:00 +14°C° 0.7 mm 3 mps 746 mmHg 90%
    07:00 +14°C° 0.7 mm 3 mps 746 mmHg 90%
    08:00 +14°C° 0.5 mm 3 mps 746 mmHg 87%
    09:00 +14°C° 0.5 mm 4 mps 746 mmHg 84%
    10:00 +14°C° 0.5 mm 4 mps 747 mmHg 81%
    11:00 +15°C° 0.3 mm 4 mps 747 mmHg 75%
    12:00 +16°C° 0.3 mm 5 mps 747 mmHg 70%
    13:00 +17°C° 0.3 mm 5 mps 747 mmHg 65%
    14:00 +16°C° 0.3 mm 5 mps 747 mmHg 71%
    15:00 +15°C° 0.3 mm 4 mps 747 mmHg 77%
    16:00 +14°C° 0.3 mm 4 mps 747 mmHg 83%
    17:00 +14°C° 0.1 mm 3 mps 747 mmHg 83%
    18:00 +14°C° 0.1 mm 3 mps 747 mmHg 84%
    19:00 +15°C° 0.1 mm 2 mps 747 mmHg 85%
    20:00 +13°C° 0.1 mm 3 mps 747 mmHg 85%
    21:00 +13°C° 0.1 mm 3 mps 747 mmHg 86%
    22:00 +13°C° 0.1 mm 3 mps 748 mmHg 87%
    23:00 +13°C° 0.1 mm 3 mps 748 mmHg 87%

    26 September, Thursday

    Time Temperature Precipitation Wind Pressure Humidity
    00:00 +14°C° 0.1 mm 3 mps 748 mmHg 87%
    01:00 +14°C° 0.1 mm 4 mps 748 mmHg 87%
    02:00 +14°C° 0 mm 3 mps 748 mmHg 87%
    03:00 +14°C° 0 mm 3 mps 748 mmHg 87%
    04:00 +14°C° 0 mm 3 mps 748 mmHg 87%
    05:00 +14°C° 0 mm 3 mps 748 mmHg 87%
    06:00 +14°C° 0 mm 3 mps 749 mmHg 88%
    07:00 +14°C° 0 mm 3 mps 749 mmHg 89%
    08:00 +14°C° 0.1 mm 3 mps 749 mmHg 89%
    09:00 +16°C° 0.1 mm 3 mps 749 mmHg 89%
    10:00 +16°C° 0.1 mm 3 mps 750 mmHg 88%
    11:00 +15°C° 0.4 mm 4 mps 750 mmHg 89%
    12:00 +15°C° 0.4 mm 4 mps 750 mmHg 90%
    13:00 +15°C° 0.4 mm 4 mps 750 mmHg 91%
    14:00 +17°C° 0.1 mm 4 mps 750 mmHg 89%
    15:00 +17°C° 0.1 mm 4 mps 750 mmHg 88%
    16:00 +18°C° 0.1 mm 4 mps 750 mmHg 87%
    17:00 +17°C° 0.1 mm 3 mps 750 mmHg 87%
    18:00 +17°C° 0.1 mm 3 mps 750 mmHg 88%
    19:00 +17°C° 0.1 mm 3 mps 750 mmHg 88%
    20:00 +16°C° 0 mm 3 mps 751 mmHg 89%
    21:00 +16°C° 0 mm 3 mps 751 mmHg 89%
    22:00 +16°C° 0 mm 2 mps 751 mmHg 89%
    23:00 +16°C° 0.1 mm 2 mps 751 mmHg 89%

    27 September, Friday

    Time Temperature Precipitation Wind Pressure Humidity
    00:00 +16°C° 0.1 mm 2 mps 750 mmHg 89%
    01:00 +16°C° 0.1 mm 2 mps 750 mmHg 88%
    02:00 +16°C° 0.1 mm 2 mps 750 mmHg 88%
    03:00 +16°C° 0.1 mm 3 mps 750 mmHg 89%
    04:00 +16°C° 0.1 mm 3 mps 750 mmHg 89%
    05:00 +16°C° 0 mm 3 mps 749 mmHg 88%
    06:00 +16°C° 0 mm 3 mps 749 mmHg 87%
    07:00 +16°C° 0 mm 3 mps 749 mmHg 87%
    08:00 +16°C° 0 mm 3 mps 749 mmHg 84%
    09:00 +17°C° 0 mm 4 mps 749 mmHg 82%
    10:00 +17°C° 0 mm 4 mps 749 mmHg 80%
    11:00 +18°C° 0.1 mm 4 mps 749 mmHg 78%
    12:00 +18°C° 0.1 mm 4 mps 749 mmHg 76%
    13:00 +17°C° 0.1 mm 5 mps 749 mmHg 74%
    14:00 +18°C° 0.2 mm 4 mps 748 mmHg 75%
    15:00 +18°C° 0.2 mm 4 mps 748 mmHg 76%
    16:00 +18°C° 0.2 mm 4 mps 748 mmHg 77%
    17:00 +17°C° 0.1 mm 3 mps 748 mmHg 79%
    18:00 +16°C° 0.1 mm 3 mps 748 mmHg 81%
    19:00 +16°C° 0.1 mm 3 mps 748 mmHg 83%
    20:00 +14°C° 0 mm 3 mps 749 mmHg 83%
    21:00 +14°C° 0 mm 3 mps 749 mmHg 83%
    22:00 +14°C° 0 mm 3 mps 749 mmHg 82%
    23:00 +13°C° 0 mm 3 mps 749 mmHg 82%
    Show more